Weather History for Green Bay, WI

Change the Weather History Date:

Sunday, December 30, 2012

  Actual Average Record
Temperature  
Mean Temperature 16 °F 18 °F  
Max Temperature 22 °F 25 °F 55 °F (1936)
Min Temperature 10 °F 11 °F -19 °F (2013)
Degree Days  
Heating Degree Days 49 47  
Month to date heating degree days 1068 1303  
Since 1 July heating degree days 2701 3043  
Cooling Degree Days 0 0  
Month to date cooling degree days 0 0  
Year to date cooling degree days 786 398  
Moisture  
Dew Point 10 °F    
Average Humidity 75    
Maximum Humidity 83    
Minimum Humidity 67    
Precipitation  
Precipitation T in 0.04 in 0.78 in (1972)
Month to date precipitation 2.54 1.47  
Year to date precipitation 31.53 29.48  
Snow  
Snow T in 0.40 in 6.70 in (1971)
Month to date snowfall 22.8 12.7  
Since 1 July snowfall 24.3 16.9  
Snow Depth 11.00 in    
Sea Level Pressure  
Sea Level Pressure 30.16 in    
Wind  
Wind Speed 8 mph (SW)    
Max Wind Speed 15 mph    
Max Gust Speed 19 mph    
Visibility 6 miles    
Events      
T = Trace of Precipitation, MM = Missing Value Source: NWS Daily Summary

Daily Weather History Graph

Daily Weather History Graph

Search for Another Location

Airport:

Trip Planner

Search our weather history database for the weather conditions in past years. The results will help you decide how hot, cold, wet, or windy it might be!

Date:

Astronomy

Dec. 30, 2012 Rise Set
Actual Time 7:28 AM CST 4:22 PM CST
Civil Twilight 6:55 AM CST 4:55 PM CST
Nautical Twilight 6:18 AM CST 5:32 PM CST
Astronomical Twilight 5:43 AM CST 6:07 PM CST
Moon 6:59 PM CST (12/30) 8:32 AM CST (12/30)
Length of Visible Light 9h 59m
Length of Day
8h 53m
Waning Gibbous, 95% of the Moon is Illuminated
Dec 30
Waning Gibbous
Jan 4
Last Quarter
Jan 11
New
Jan 18
First Quarter
Jan 26
Full

Hourly Weather History & Observations

Time (CST) Temp. Windchill Dew Point Humidity Pressure Visibility Wind Dir Wind Speed Gust Speed Precip Events Conditions
12:53 AM 19.9 °F 11.1 °F 14.0 °F 78% 30.15 in 10.0 mi WSW 6.9 mph - N/A   Overcast
1:53 AM 19.9 °F 10.1 °F 14.0 °F 78% 30.17 in 9.0 mi WSW 8.1 mph - N/A   Overcast
2:53 AM 19.0 °F 8.2 °F 12.9 °F 77% 30.17 in 8.0 mi WSW 9.2 mph - N/A   Overcast
3:53 AM 19.0 °F 7.5 °F 12.9 °F 77% 30.18 in 8.0 mi West 10.4 mph - N/A   Overcast
4:53 AM 19.0 °F 6.1 °F 12.0 °F 74% 30.21 in 9.0 mi West 12.7 mph - N/A   Overcast
5:53 AM 18.0 °F 5.4 °F 12.0 °F 78% 30.22 in 8.0 mi West 11.5 mph - N/A   Overcast
6:53 AM 18.0 °F 5.4 °F 10.9 °F 74% 30.23 in 8.0 mi West 11.5 mph - N/A   Overcast
7:53 AM 17.1 °F 5.0 °F 10.9 °F 77% 30.23 in 6.0 mi West 10.4 mph - N/A   Haze
8:53 AM 16.0 °F 4.4 °F 10.9 °F 81% 30.25 in 4.0 mi West 9.2 mph - N/A   Haze
9:53 AM 16.0 °F 5.3 °F 10.0 °F 77% 30.26 in 5.0 mi WSW 8.1 mph - N/A   Haze
10:18 AM 16.0 °F 4.4 °F 10.0 °F 77% 30.23 in 4.0 mi WSW 9.2 mph - 0.00 in   Haze
10:53 AM 16.0 °F 3.6 °F 10.0 °F 77% 30.27 in 4.0 mi SW 10.4 mph - 0.00 in   Haze
11:18 AM 15.1 °F 3.3 °F 9.0 °F 77% 30.21 in 6.0 mi SSW 9.2 mph - N/A   Haze
11:53 AM 16.0 °F 4.4 °F 8.1 °F 71% 30.25 in 5.0 mi WSW 9.2 mph - N/A   Haze
12:53 PM 16.0 °F 6.3 °F 8.1 °F 71% 30.21 in 5.0 mi SSW 6.9 mph - N/A   Haze
1:53 PM 16.0 °F 4.4 °F 8.1 °F 71% 30.19 in 5.0 mi SSW 9.2 mph - N/A   Haze
2:53 PM 17.1 °F 6.6 °F 9.0 °F 71% 30.18 in 5.0 mi SSW 8.1 mph - N/A   Haze
3:53 PM 15.1 °F 2.5 °F 8.1 °F 74% 30.17 in 5.0 mi SSW 10.4 mph - N/A   Haze
4:53 PM 12.9 °F 3.8 °F 7.0 °F 77% 30.15 in 6.0 mi SSW 5.8 mph - N/A   Haze
5:53 PM 12.0 °F 1.5 °F 7.0 °F 80% 30.14 in 5.0 mi South 6.9 mph - N/A   Haze
6:53 PM 12.9 °F 3.8 °F 7.0 °F 77% 30.12 in 6.0 mi SSW 5.8 mph - N/A   Haze
7:53 PM 10.0 °F 0.4 °F 6.1 °F 84% 30.09 in 5.0 mi South 5.8 mph - N/A   Clear
8:53 PM 15.1 °F 6.4 °F 9.0 °F 77% 30.04 in 6.0 mi South 5.8 mph - N/A   Haze
9:53 PM 18.0 °F 8.7 °F 12.0 °F 78% 30.02 in 6.0 mi SSW 6.9 mph - N/A   Haze
10:53 PM 21.9 °F 12.5 °F 16.0 °F 78% 29.98 in 7.0 mi SSW 8.1 mph - N/A   Clear
11:53 PM 21.0 °F 14.6 °F 16.0 °F 81% 29.95 in 6.0 mi SW 4.6 mph - N/A   Haze